Regional Weather Roundup
Issued by NWS

Home | Current Version | Previous Version | Graphics & Text | Print | Product List | Glossary On
Versions: 1 2 3 4 5 6 7 8 9 10 11 12 13 14 15 16 17 18 19 20 21 22 23 24 25 26 27 28 29 30 31 32 33 34 35 36 37 38 39 40 41 42 43 44 45 46 47 48 49 50
000
ASUS45 KPSR 140410
RWRAZ

ARIZONA REGIONAL HOURLY WEATHER ROUNDUP
NATIONAL WEATHER SERVICE PHOENIX AZ
900 PM MST SUN JUL 13 2014

NOTE: FAIR INDICATES FEW OR NO CLOUDS BELOW 12,000 FEET WITH NO
SIGNIFICANT WEATHER AND/OR OBSTRUCTIONS TO VISIBILITY.

AZZ001>003-036-140500-
NORTHWEST ARIZONA

CITY           SKY/WX    TMP DP  RH WIND       PRES   REMARKS
BULLHEAD CITY  CLOUDY   104 N/A N/A NE14      29.77R
KINGMAN        CLOUDY    84  56  38 N13       30.04R
$$

AZZ004>008-015-016-018-140500-
NORTH CENTRAL ARIZONA

CITY           SKY/WX    TMP DP  RH WIND       PRES   REMARKS
GRAND CANYON   CLOUDY    67  57  70 CALM      30.31R
WILLIAMS       CLOUDY    66  55  68 N5        30.38R
PRESCOTT       CLOUDY    77  54  44 SW6       30.18R
FLAGSTAFF      CLOUDY    67  51  56 CALM      30.33S
PAYSON         CLOUDY    73  52  46 NE7       30.21R
PAGE           MOCLDY    92  49  22 VRB5      30.03R
$$

AZZ009>014-017-140500-
NORTHEAST ARIZONA

CITY           SKY/WX    TMP DP  RH WIND       PRES   REMARKS
WINSLOW        CLOUDY    76  57  51 S18       30.17R
SAINT JOHNS    CLOUDY    74  58  57 NE9       30.28R THUNDER
WINDOW ROCK    CLOUDY    69  50  50 NE29G45   30.34R
SHOW LOW       CLOUDY    68  52  56 S7        30.33R
$$

AZZ023-140500-
GREATER PHOENIX AREA

CITY           SKY/WX    TMP DP  RH WIND       PRES   REMARKS
PHOENIX        CLOUDY    93  62  35 SE9       29.85R
BUCKEYE          N/A     95  59  30 SW7       29.83R
LUKE AFB       NOT AVBL
DEER VALLEY    CLOUDY    96  59  29 E3        29.86R
SCOTTSDALE     CLOUDY    93  62  35 SE5       29.88R
MESA-GATEWAY   CLOUDY    91  63  38 S7        29.90R
CHANDLER       MOCLDY    95  63  34 S12       29.87R
$$

AZZ027-028-140500-
SOUTHWEST MARICOPA COUNTY AND PINAL COUNTY

CITY           SKY/WX    TMP DP  RH WIND       PRES   REMARKS
CASA GRANDE    CLOUDY    90  66  45 SE14      29.91R
$$

AZZ503-504-507>509-140500-
SOUTHEAST ARIZONA

CITY           SKY/WX    TMP DP  RH WIND       PRES   REMARKS
TUCSON         CLOUDY    74  67  78 NE7       30.08R
DAVIS-MONTHAN  DRIZZLE   73  68  83 E7        30.08R
NOGALES        LGT RAIN  70  64  81 NW3       30.14R
SIERRA VISTA   CLOUDY    73  63  70 W10       30.18R THUNDER
DOUGLAS        CLOUDY    73  66  78 CALM      30.14R
SAFFORD        MOCLDY    75  65  70 NE6       30.04F
$$

AZZ020-021-025-026-031-140500-
SOUTHWEST ARIZONA

CITY           SKY/WX    TMP DP  RH WIND       PRES   REMARKS
YUMA           MOCLDY    95  57  27 S13       29.79R
$$

CAZ031-033-041-043-047-048-061-140500-
SOUTHERN CALIFORNIA

CITY           SKY/WX    TMP DP  RH WIND       PRES   REMARKS
DOWNTOWN L.A.  CLEAR     74  59  59 CALM      29.88R
L.A. AIRPORT   PTCLDY    71  64  78 SW3       29.89R
SAN DIEGO      MOCLDY    69  61  75 S7        29.93R
BURBANK        CLEAR     75  51  43 S8        29.89R
ONTARIO        PTCLDY    77  60  55 W8        29.90R
RIVERSIDE      PTCLDY    77  61  57 W7        29.89R
PALM SPRINGS   PTCLDY   104  53  18 NE6       29.77R HX 102
EL CENTRO NAS  CLEAR     93  63  36 SE13      29.73R
IMPERIAL         N/A     94  64  37 SE16      29.72R
BLYTHE         MOCLDY    99  61  28 S14       29.76R
NEEDLES        CLOUDY   106  50  15 W3        29.75F HX 103
$$

NVZ020-UTZ003-140500-
SOUTHERN NEVADA-UTAH

CITY           SKY/WX    TMP DP  RH WIND       PRES   REMARKS
LAS VEGAS      CLOUDY   104  45  13 S16G24    29.80R HX 100
SALT LAKE CITY MOCLDY    86  50  28 W6        30.08R
$$

NMZ009-TXZ055-140500-
NEW MEXICO-WEST TEXAS

CITY           SKY/WX    TMP DP  RH WIND       PRES   REMARKS
ALBUQUERQUE    CLOUDY    72  54  53 E14       30.26S
EL PASO        MOCLDY    85  57  38 N13       30.09R
$$


........................KEY........................
SKY/WX - SKY CONDITION/WEATHER
TMP    - TEMPERATURE IN FAHRENHEIT
DP     - DEW POINT IN FAHRENHEIT
RH     - RELATIVE HUMIDITY IN PERCENT
WIND   - DIRECTION AND SPEED IN MILES PER HOUR (MPH)
VRB    - VARIABLE WIND DIRECTION
PRES   - MEAN SEA LEVEL PRESSURE IN INCHES OF MERCURY
         F - FALLING PRESSURE   R - RISING PRESSURE
         S - STEADY PRESSURE
VSB    - VISIBILITY IN MILES
HX     - HEAT INDEX IN FAHRENHEIT
WCI    - WIND CHILL INDEX IN FAHRENHEIT
TC     - TEMPERATURE IN CELSIUS WHICH IS ALSO KNOWN AS
         TEMPERATURE IN CENTIGRADE
AFB    - AIR FORCE BASE
         LUKE AFB IS LUKE AIR FORCE BASE
         DAVIS-MONTHAN IS DAVIS-MONTHAN AIR FORCE BASE
NAS    - NAVAL AIR STATION
         EL CENTRO NAS IS EL CENTRO NAVAL AIR STATION
N/A    - NOT AVAILABLE



USA.gov is the U.S. government's official web portal to all federal, state and local government web resources and services.